Starlink 6129

operational
NORAD ID: 57116 Int'l Des: 2023-090 Owner: SPXS Country: US Constellation: starlink
LEOCIRCULAR

About Starlink 6129

Description loading...

Live Position

Loading 3D Globe...

Upcoming Passes

Altitude History

Altitude vs Time

uPlot chart will show altitude changes over time

Two-Line Element Set

1 57116U 23090R 26069.62833333 .00000298 00000-0 37093-4 0 9993
2 57116 43.0026 269.6311 0001153 270.5195 89.5515 15.02536753150550
Epoch: Mar 10, 2026 • Age: 34 hours

Current Status

Altitude 565.7 km
Velocity 7.58 km/s
Sub-Earth Point -28.03°S, 88.83°W
Launch Date Jun 23, 2023
Age 2.7 years
Type internet

Technical Details

Classification Payload
Mass 305.00 kg
Dry Mass 290.00 kg
Total Mass 305.00 kg
Length 0.20 m
Diameter 2.80 m
Span 9.00 m
Shape Box + pan
Manufacturer SPXS
Bus Type Starlink
Phase Status In Orbit
Owner/State SPXS/US

Large Constellations

Loading constellations...